Wind_Speed
42 42 41 41 41 40 40 39 39 39 39 39 39 40 40 40 39 38 38 38 37 37 36 35 35 35 35 34 32 30 29 30 31 32 33 34 37 39 42 44 46 48 50 51 51 52 53 53 55 56 58 59 59 59 59 59 58 57 58 58 60 60 60 60 60 59 59 58 58 58 56 55 56 57 58 59 59 57 54 53 51 49 50 52 53
40 41 41 41 41 41 41 40 40 40 41 41 41 41 40 39 38 37 37 37 37 35 35 35 35 36 35 33 33 33 34 33 33 32 34 36 38 40 42 45 47 49 51 52 53 54 55 55 56 57 58 60 61 61 60 60 60 60 59 59 60 61 62 62 62 61 60 60 60 60 59 57 57 57 57 58 60 60 58 56 54 50 49 51 52
39 40 41 41 42 42 42 41 42 42 42 42 42 41 40 39 38 37 37 37 36 35 35 35 35 35 34 34 35 37 37 36 34 35 37 38 39 41 43 46 48 50 51 53 55 56 57 56 57 58 59 60 61 62 62 61 62 62 61 60 60 61 62 64 64 64 62 62 62 62 62 61 59 57 57 58 59 61 61 59 56 51 50 51 51
39 40 41 41 42 42 42 43 43 43 43 42 42 41 41 39 38 38 38 37 37 36 36 35 35 35 36 36 37 38 38 38 38 38 39 40 41 43 45 46 48 50 52 53 55 57 60 60 59 58 58 60 61 62 62 62 62 63 63 62 61 61 62 64 65 66 65 64 63 63 63 63 62 60 58 58 58 60 61 61 59 54 52 53 51
40 40 40 41 42 43 43 43 43 43 43 42 42 42 41 40 39 38 38 38 37 37 36 36 35 36 38 38 39 40 40 40 41 42 45 46 47 47 47 48 48 50 52 54 55 56 59 62 64 62 60 59 60 61 62 63 63 64 64 64 63 62 62 63 65 67 67 66 65 65 64 64 64 63 60 59 59 59 61 62 62 60 56 55 52
40 40 40 41 41 42 43 43 43 43 43 43 42 42 41 40 39 39 39 39 38 38 37 37 37 38 39 40 41 42 43 44 46 49 52 53 53 52 52 52 51 52 53 54 55 56 57 59 63 66 65 62 61 61 61 62 63 64 64 64 64 64 63 63 64 66 68 68 67 66 66 65 65 65 64 62 60 60 60 61 62 63 62 59 53
40 40 40 40 41 42 42 43 43 43 43 42 42 41 41 40 40 40 40 40 40 39 39 39 40 40 40 41 43 45 47 49 52 55 56 56 55 55 55 56 55 54 54 54 55 56 57 57 59 63 66 67 65 63 63 63 63 64 65 64 64 64 64 63 63 65 67 68 69 68 68 67 66 66 66 64 63 61 61 61 62 63 65 64 57
40 41 41 40 41 41 42 43 43 42 42 42 41 41 41 41 41 41 42 42 42 41 41 41 42 43 44 45 47 50 51 53 55 57 57 57 57 56 57 58 58 57 56 56 56 56 56 56 56 57 61 65 66 66 66 66 66 66 65 65 64 63 64 64 63 64 66 68 69 70 69 69 67 67 67 67 65 63 62 61 62 62 64 66 63
41 41 41 41 41 41 42 42 42 42 42 41 41 41 42 43 43 43 43 44 44 43 43 43 45 46 48 50 52 53 54 54 56 57 58 58 58 58 58 59 59 59 58 58 59 59 59 57 55 54 55 58 61 62 63 64 66 66 66 66 65 64 63 64 63 63 65 67 69 70 71 71 70 68 67 68 68 67 64 63 62 62 62 65 66
42 42 42 42 42 42 42 43 43 42 42 42 42 42 43 44 45 45 45 46 46 45 45 45 47 49 51 53 54 54 55 55 56 57 58 58 58 58 58 59 60 60 60 61 61 61 61 61 59 56 54 54 55 56 57 58 59 61 63 64 64 63 63 63 63 62 63 65 67 69 71 72 72 70 69 68 69 69 67 66 64 63 62 62 65
41 42 42 43 43 43 43 44 44 44 43 43 43 44 44 45 46 47 47 48 47 47 47 48 49 51 53 54 56 56 57 57 57 57 58 58 58 59 59 60 60 61 62 63 63 63 63 63 62 60 58 56 54 53 54 55 56 57 58 60 61 61 61 61 62 61 60 62 64 67 69 71 72 73 71 69 69 69 69 69 67 66 64 63 63
41 42 43 43 44 44 45 45 46 45 45 45 45 45 45 46 47 47 48 49 49 49 49 50 51 52 53 55 56 57 58 58 58 59 60 60 60 60 60 60 61 61 62 63 64 65 65 65 64 63 61 59 55 54 55 56 56 56 57 57 58 58 58 59 60 60 60 59 61 64 67 69 71 73 74 72 71 70 70 70 70 68 66 65 64
42 42 43 44 44 45 45 46 47 47 47 46 46 46 47 47 48 48 49 50 51 51 51 51 52 53 53 55 57 58 59 60 60 62 63 62 61 61 61 61 61 62 63 64 65 66 67 67 67 65 64 61 59 56 57 58 58 58 58 58 58 58 58 58 58 59 60 60 60 61 64 67 69 72 74 75 73 72 72 71 71 71 68 67 66
43 44 44 45 45 46 46 47 47 48 48 47 47 47 48 49 50 50 51 51 52 53 53 53 54 54 55 56 57 58 61 62 62 64 64 62 62 63 63 63 63 64 65 67 67 68 69 70 69 68 66 64 62 60 58 59 60 60 60 60 60 60 60 60 60 60 61 61 61 61 63 65 68 69 72 74 75 74 73 73 73 72 71 69 68
45 45 45 45 45 46 46 47 48 48 48 47 48 48 49 51 53 53 54 53 54 54 55 55 55 56 57 57 57 59 61 63 64 65 65 64 64 65 65 65 65 66 67 69 69 70 71 72 72 71 70 68 66 63 61 61 61 61 62 62 62 62 63 63 63 63 63 63 63 63 63 65 66 68 69 72 75 75 75 75 74 73 73 71 70
47 47 47 46 46 46 46 47 48 47 47 48 49 50 51 54 55 56 56 56 56 57 57 58 58 59 59 58 60 61 63 65 66 66 66 66 65 66 66 66 66 68 70 71 70 71 73 74 75 74 73 71 69 67 64 63 63 63 64 64 64 64 65 65 64 63 63 64 65 65 65 66 67 67 68 70 72 74 75 75 76 75 74 72 71
49 48 47 47 46 46 46 47 47 47 48 49 50 52 54 55 57 58 59 58 58 59 60 60 61 61 61 61 63 64 64 66 68 67 67 67 67 67 67 68 69 71 72 72 72 74 75 76 77 77 76 74 72 69 67 65 65 65 66 66 66 66 66 66 66 64 62 63 65 66 67 68 68 69 69 69 71 72 74 75 76 77 76 74 72
49 48 48 47 47 47 47 47 47 48 49 50 51 53 55 56 57 59 60 60 59 60 62 63 63 63 64 64 64 65 66 67 69 69 67 66 67 68 68 70 72 74 73 72 74 76 77 79 80 80 79 77 74 71 69 67 66 67 67 68 69 69 69 69 69 68 65 63 65 68 69 70 71 72 71 71 71 72 73 75 76 77 76 76 74
49 49 48 48 48 48 49 49 49 49 50 51 52 53 55 56 57 58 59 60 60 61 63 64 64 66 66 65 65 66 67 68 69 70 69 66 66 68 71 73 74 74 73 73 76 78 79 82 83 83 82 80 76 72 69 67 67 68 69 69 70 71 71 71 72 72 70 66 65 67 71 73 73 74 74 74 73 73 74 74 75 77 78 76 74
50 49 49 49 49 50 50 51 51 51 52 52 53 54 55 56 57 58 58 59 60 62 63 64 66 67 67 66 65 66 67 68 70 72 73 70 65 67 72 75 76 75 74 75 78 80 82 84 85 85 83 80 77 73 69 66 66 67 69 71 72 73 73 73 73 74 75 72 69 68 70 74 76 76 76 77 76 75 75 75 75 76 79 79 75
50 50 50 50 51 51 52 53 53 53 53 53 54 55 56 56 57 58 59 60 61 62 63 65 66 67 67 66 66 66 68 69 72 74 75 73 69 68 71 75 77 76 76 77 79 81 83 85 86 85 83 80 76 72 69 66 65 66 68 71 73 75 75 75 75 75 76 77 75 71 70 72 76 78 79 79 79 78 77 76 76 76 78 80 78
50 50 51 52 52 53 53 54 55 55 55 55 56 56 57 57 57 58 59 60 61 62 64 65 67 67 67 67 66 67 69 71 74 75 76 76 74 73 72 74 77 76 77 79 81 83 84 85 86 85 82 78 74 70 67 66 66 66 68 71 73 76 77 77 77 77 77 78 79 78 74 72 74 77 80 81 81 81 80 78 77 77 77 80 81
50 50 52 52 53 53 54 55 56 56 56 57 57 58 58 58 58 59 60 61 62 63 64 66 68 68 68 68 68 69 71 72 74 76 77 78 79 77 75 76 77 76 79 81 83 84 85 85 86 85 82 77 72 68 66 65 66 68 69 72 75 77 79 80 80 80 80 80 81 82 81 78 75 76 79 81 83 83 83 82 80 78 78 79 81
50 51 52 53 53 54 55 56 57 57 57 58 59 59 59 60 60 61 61 62 64 65 66 67 68 69 69 69 70 71 72 73 74 76 79 82 82 81 79 78 77 76 79 83 84 85 86 86 85 83 80 76 73 70 68 67 68 69 71 74 77 79 81 83 84 84 84 84 85 85 85 85 82 79 79 80 83 85 85 85 83 81 79 79 80
51 52 53 54 54 55 56 57 58 58 59 60 61 61 61 62 62 63 63 64 65 66 68 69 69 70 70 71 72 72 72 73 75 78 82 84 84 84 82 80 79 78 79 82 84 85 85 86 85 83 80 77 75 74 73 72 73 73 75 77 79 82 84 86 88 89 89 89 90 90 90 90 89 86 83 81 82 84 86 87 86 85 82 80 80
52 52 53 54 55 56 57 58 59 60 61 62 62 62 62 63 64 64 65 65 66 68 69 70 71 72 72 72 72 72 72 74 78 82 84 85 86 86 84 81 81 82 81 80 82 84 84 84 85 85 83 81 79 77 76 76 77 78 79 81 82 84 86 88 90 93 94 95 95 95 94 94 94 93 90 87 84 83 85 87 88 87 86 82 80
52 53 54 56 56 57 58 59 61 62 62 63 63 63 63 64 64 65 65 67 68 70 71 72 73 73 73 73 72 72 75 78 81 84 85 86 86 85 85 84 83 81 79 78 78 81 84 86 86 86 87 85 82 81 80 80 81 81 83 85 85 86 88 90 92 94 97 99 100 101 100 100 100 99 96 93 90 86 85 87 88 89 89 86 82
54 55 56 57 58 59 60 61 63 64 64 64 64 64 64 64 64 65 67 69 70 72 73 74 74 74 74 73 73 75 77 81 84 85 86 85 84 84 84 86 85 81 78 78 78 81 86 89 89 87 87 87 84 83 83 83 83 85 86 87 87 88 89 92 95 96 98 101 103 104 105 105 105 104 103 100 96 93 89 87 88 90 92 89 85
56 57 58 59 60 61 62 63 64 65 66 66 65 65 65 65 66 68 69 71 73 74 74 75 75 74 73 74 75 77 80 83 85 86 85 84 82 82 83 84 85 85 85 86 85 86 90 90 89 87 86 86 85 85 85 85 85 87 89 90 89 88 89 93 98 100 101 102 104 105 107 108 108 108 108 106 102 99 94 91 89 90 92 93 89
59 60 61 62 63 63 64 65 66 67 67 67 66 66 66 67 68 70 71 73 74 75 75 76 75 75 75 76 77 80 82 84 85 85 83 82 81 81 82 83 85 90 94 98 96 95 96 93 88 86 85 86 86 86 86 87 86 88 90 92 93 92 92 96 102 105 106 107 107 109 110 111 112 112 112 110 107 104 100 95 92 91 92 95 93
62 62 63 64 65 66 66 67 68 68 68 68 67 67 68 69 70 71 72 73 74 75 75 75 75 76 77 79 80 82 84 85 85 84 82 80 80 81 82 84 88 93 99 104 104 102 100 94 86 84 85 86 87 87 87 87 88 90 92 94 96 98 101 105 109 112 113 112 112 113 115 115 116 116 116 115 113 109 105 100 96 93 93 95 96
64 65 65 66 67 68 68 69 69 69 69 68 68 68 69 70 71 72 73 74 75 75 75 75 76 78 79 81 82 83 84 85 85 84 82 80 81 82 84 87 91 96 102 106 108 106 100 92 85 83 83 84 86 87 89 89 90 93 97 99 101 106 110 112 112 111 110 109 109 110 112 114 115 117 118 118 117 114 110 105 100 97 95 95 97
66 67 67 67 68 69 70 71 71 70 70 69 69 69 71 72 73 74 74 75 75 75 75 77 79 80 81 81 83 84 85 85 85 83 81 81 83 85 88 91 94 99 104 107 109 108 102 92 87 84 82 82 83 87 92 94 95 98 103 105 108 109 108 105 101 97 96 96 97 98 100 103 107 110 115 118 119 118 114 109 105 101 98 97 98
68 68 68 68 69 70 71 72 72 71 71 70 71 72 73 74 74 74 75 75 75 76 77 79 80 81 81 82 83 85 86 85 83 81 81 82 85 87 90 94 97 101 104 105 107 107 102 94 89 85 82 83 86 89 95 100 102 105 107 106 103 98 92 86 82 79 79 80 82 84 86 90 95 100 106 113 118 119 118 113 108 104 101 99 100
68 69 69 69 69 70 71 72 72 72 71 71 72 73 74 74 75 75 76 76 77 78 79 80 81 81 82 82 84 85 86 84 83 82 82 84 87 90 93 95 99 101 102 103 104 104 101 97 92 88 86 89 93 95 99 103 105 104 100 93 85 77 72 70 69 69 70 73 76 78 80 82 86 91 97 105 113 117 119 117 113 108 104 102 102
69 69 69 68 68 69 70 71 72 71 72 72 73 74 75 75 76 76 77 78 78 79 79 80 81 81 82 82 84 85 85 84 83 83 84 87 89 92 94 96 100 100 100 101 101 101 100 97 94 94 94 97 100 101 102 100 95 89 82 73 66 63 62 64 66 67 68 72 76 78 80 80 81 84 91 99 107 114 119 121 118 113 108 105 104
69 69 69 68 69 70 71 71 71 71 71 72 73 74 75 76 76 77 78 78 78 78 79 80 81 81 82 82 83 84 83 82 83 84 86 88 90 92 95 98 100 100 99 99 99 98 97 97 97 99 101 103 105 102 94 83 75 68 64 60 58 58 60 62 65 66 67 69 72 75 77 79 78 79 85 94 102 110 117 122 121 116 111 107 106
70 70 69 69 69 70 71 71 71 71 72 73 74 75 76 76 76 76 76 76 76 77 79 80 80 81 81 81 82 82 81 81 82 85 86 89 91 93 96 99 100 100 100 100 98 96 95 96 99 103 105 105 102 91 74 63 59 56 54 54 55 56 58 60 61 62 62 63 65 67 71 74 74 76 81 89 98 107 114 120 122 119 113 110 108
69 69 69 69 69 70 70 70 71 71 72 73 74 75 75 74 73 72 73 74 75 77 78 78 79 79 80 80 81 80 80 81 83 85 87 90 92 94 97 100 100 100 101 100 97 94 95 97 101 105 107 101 89 74 58 52 53 51 51 52 51 52 55 57 57 56 56 57 58 60 64 68 72 75 79 86 96 104 112 118 121 120 116 111 110
67 67 67 68 68 69 70 70 70 71 73 74 75 74 71 69 68 69 71 72 73 74 75 76 77 78 78 79 79 79 80 82 83 85 88 91 94 96 99 102 102 102 103 102 97 94 95 99 102 105 102 89 72 60 51 48 49 49 50 52 48 48 52 55 55 53 51 53 54 55 58 64 68 72 75 81 91 101 109 114 117 119 117 113 112
65 65 65 66 66 67 68 69 71 72 74 75 74 71 67 67 68 69 69 70 71 73 74 75 75 75 76 77 77 78 80 83 85 88 91 94 97 99 101 102 103 103 104 103 97 94 96 100 103 102 91 73 59 53 48 47 48 48 50 51 48 47 51 52 51 50 48 49 51 52 55 59 62 65 69 76 87 97 107 113 115 118 117 114 113
62 63 63 64 64 65 67 70 72 73 74 74 72 69 68 68 68 68 68 69 72 73 74 74 74 74 76 76 77 79 82 86 89 91 94 96 98 100 100 100 101 103 103 101 96 95 97 100 101 94 76 59 52 51 49 47 49 50 50 51 49 48 49 49 46 45 46 46 48 51 50 50 52 57 63 71 82 93 104 113 116 117 116 114 114
60 60 61 61 63 65 68 71 72 73 73 73 72 70 69 69 68 67 69 71 72 73 73 73 74 75 76 77 79 82 85 88 90 92 94 96 97 98 98 99 99 100 100 99 97 97 99 99 96 83 62 50 49 51 50 49 51 53 51 50 49 47 47 47 43 41 43 45 47 47 43 42 46 53 59 67 77 89 102 112 116 116 115 115 115
62 62 61 62 64 67 70 72 74 74 74 72 71 70 70 70 69 69 70 70 71 72 72 74 75 76 77 78 81 84 86 88 90 92 94 95 96 96 96 96 96 95 95 96 99 100 99 96 89 71 53 47 47 49 52 53 54 54 52 51 50 47 45 45 40 38 42 44 45 46 45 44 48 55 59 62 70 86 102 110 113 115 116 116 116
63 63 63 64 66 70 73 75 76 77 75 72 70 70 70 70 70 69 68 69 70 71 73 75 76 77 78 80 82 85 86 88 91 93 94 94 94 94 94 93 92 91 91 94 98 100 97 90 78 62 50 48 47 49 53 55 56 56 54 52 51 48 45 42 39 37 41 44 46 49 51 49 50 56 62 65 71 86 101 108 111 114 116 116 116
63 64 65 67 70 73 75 77 78 77 75 71 69 69 69 68 67 67 67 69 70 72 74 75 76 77 79 81 83 84 86 88 90 91 91 92 93 93 92 92 91 90 89 91 95 96 92 83 69 57 52 51 49 50 54 56 57 57 56 54 52 49 46 42 39 37 40 44 46 49 53 51 49 55 64 71 78 90 100 106 109 112 114 115 115
63 64 66 67 68 69 70 73 76 76 72 69 67 67 66 66 65 66 68 69 71 73 74 74 75 76 78 81 82 84 85 87 87 88 89 91 93 93 92 91 91 90 89 90 93 92 84 74 63 56 55 55 54 54 56 58 59 59 58 56 53 50 48 45 40 38 40 43 45 46 47 47 51 57 64 72 79 89 98 103 105 109 112 114 114
63 65 66 67 66 65 67 71 74 74 70 67 66 66 66 66 66 67 69 70 71 72 72 72 73 75 77 79 81 82 83 84 85 86 88 90 92 93 93 91 89 89 90 92 93 88 75 66 60 57 57 57 59 60 61 63 63 61 60 58 53 51 50 47 43 39 38 41 44 43 40 39 48 57 60 66 75 86 94 98 100 105 109 111 112
65 68 70 69 66 65 67 70 72 71 69 67 66 66 66 67 67 68 69 70 70 70 70 70 71 73 75 77 79 80 81 81 83 84 86 89 91 92 93 90 87 88 90 92 92 81 67 61 60 59 59 61 63 64 63 63 64 64 64 60 54 53 52 49 45 42 39 39 41 43 39 35 41 50 53 60 72 82 89 93 96 101 105 108 109
65 67 69 68 65 63 64 67 69 70 70 69 68 68 68 68 69 69 69 68 68 68 68 68 70 71 73 74 76 77 78 80 81 82 84 87 90 92 93 91 87 87 89 92 87 72 60 59 60 60 62 64 63 61 58 58 59 61 64 60 56 55 52 49 48 45 41 38 37 41 42 34 35 42 46 55 68 77 84 89 93 98 103 106 108
65 67 68 67 66 64 63 64 65 67 69 70 70 70 70 70 70 69 68 67 67 67 67 67 68 69 70 71 73 75 77 78 80 81 83 86 89 92 93 92 89 88 90 91 81 63 55 56 57 59 61 60 58 56 54 53 53 55 58 57 56 55 50 47 49 48 43 37 35 41 43 36 34 38 42 51 64 73 79 85 90 95 101 104 106
Wind_Direction
270 269 269 268 268 268 268 267 267 267 267 266 266 265 266 266 266 266 266 266 266 267 269 271 273 273 274 272 264 263 273 285 293 299 303 307 311 313 313 309 304 298 294 291 290 289 286 283 280 279 277 275 274 272 270 270 269 268 266 264 261 259 258 258 258 259 258 258 258 258 256 255 254 254 254 254 253 253 250 244 242 243 241 235 232
269 269 268 267 267 266 266 266 266 266 266 267 266 265 265 265 264 264 264 265 265 266 269 271 272 273 272 268 261 263 271 280 290 296 301 306 310 313 316 316 312 306 299 293 289 287 287 285 282 279 277 275 273 272 270 269 268 268 267 265 263 260 258 256 256 257 257 257 257 258 258 256 254 254 254 253 252 252 252 249 244 239 239 238 234
269 269 268 266 265 265 265 265 265 265 265 265 264 264 264 262 261 262 263 263 264 267 269 270 269 269 268 265 264 266 271 278 287 292 298 302 307 310 312 314 315 313 307 299 291 286 283 283 282 279 276 274 273 271 270 268 267 267 266 266 264 262 259 257 255 255 255 256 257 257 257 257 256 254 254 253 252 251 250 251 249 240 235 238 236
269 269 268 267 265 264 264 264 264 264 263 262 261 262 261 259 259 261 262 262 264 268 269 268 267 266 266 266 268 270 273 278 284 289 295 299 303 307 309 309 312 313 312 307 299 290 283 279 279 278 275 273 272 271 270 268 266 266 265 265 264 263 261 258 256 254 254 254 255 256 256 257 257 255 253 253 252 251 250 250 251 245 237 237 238
270 269 268 266 265 264 263 263 263 262 261 260 260 260 259 257 259 262 262 263 266 268 267 267 267 267 268 270 271 275 277 279 282 287 292 296 298 301 305 307 308 311 312 310 306 299 289 281 276 275 275 273 271 270 270 269 267 265 264 264 264 264 262 260 257 255 253 253 253 254 255 255 256 256 254 252 252 251 251 250 250 250 244 240 240
271 270 269 267 265 263 261 261 260 259 258 258 259 258 256 257 260 262 263 264 268 269 267 268 270 270 271 273 276 278 279 280 283 287 290 292 293 295 298 302 306 309 311 312 310 305 299 290 281 276 274 273 272 270 269 269 268 267 265 264 264 264 263 262 259 257 254 253 252 252 253 254 255 256 255 253 252 251 250 250 250 251 249 246 243
273 272 270 268 266 262 260 259 258 258 258 258 258 257 256 259 261 263 265 267 270 269 268 268 271 273 275 277 280 282 282 284 285 286 287 287 288 290 292 296 301 306 310 312 312 309 304 299 291 283 276 273 272 272 271 270 271 270 268 265 264 264 263 262 261 259 256 253 252 251 251 252 253 254 255 254 252 251 250 250 250 250 250 249 244
274 273 272 270 267 263 259 258 257 258 258 258 257 257 258 260 262 263 266 269 270 268 268 269 271 275 278 280 281 282 282 283 282 282 283 283 285 287 289 292 297 302 307 309 310 310 307 303 298 292 284 276 273 272 272 272 272 272 272 269 267 265 263 262 261 259 257 255 253 251 251 251 251 252 253 254 253 251 250 250 250 250 251 251 247
275 273 272 270 268 264 260 258 258 259 259 258 258 259 261 262 263 265 267 270 270 268 269 271 273 276 279 280 280 279 279 279 280 280 280 282 284 286 288 291 295 300 305 307 308 309 309 307 303 299 292 283 276 273 272 272 272 272 272 271 269 266 263 262 260 258 256 255 254 252 251 250 250 251 251 252 252 252 250 249 249 250 250 251 249
276 274 272 270 268 265 262 260 260 260 260 260 260 262 263 264 265 267 268 270 269 268 270 273 275 276 278 278 278 278 278 278 279 280 280 282 284 286 287 290 293 298 302 305 306 307 307 307 305 303 299 291 282 276 274 273 272 270 269 268 267 265 262 259 258 256 254 253 253 252 251 250 249 250 250 250 251 251 251 249 249 248 249 250 250
277 274 272 270 269 267 265 263 262 262 262 262 263 265 265 266 267 269 270 271 270 270 271 273 274 275 276 277 277 278 278 278 279 280 282 283 284 287 289 290 293 296 299 302 304 305 306 305 304 303 301 298 290 281 276 274 272 270 267 265 263 261 258 255 253 253 251 250 250 250 250 249 249 249 249 249 249 250 250 250 249 248 247 248 249
278 276 274 272 271 270 268 266 265 264 264 265 265 266 268 269 270 271 272 272 272 271 272 273 273 275 276 277 278 279 280 280 281 283 286 286 286 288 290 291 293 295 298 301 303 304 303 302 302 301 300 298 293 284 277 273 271 269 267 265 262 259 257 254 251 250 249 248 247 247 248 248 248 248 248 248 248 248 249 249 249 249 248 247 247
279 277 276 275 274 272 271 269 267 266 266 266 267 268 269 271 273 274 275 275 274 273 273 273 274 275 276 277 278 280 281 281 282 285 287 287 287 289 291 291 293 295 297 299 302 302 301 300 299 299 298 297 294 287 279 274 272 271 269 267 265 263 260 258 256 254 252 250 247 246 246 246 246 246 246 247 247 247 247 248 248 249 249 248 247
280 279 277 276 275 274 272 270 268 267 267 267 268 269 272 274 276 277 277 277 276 275 275 275 275 276 277 278 279 281 282 283 284 285 286 287 288 290 291 291 292 294 296 298 300 300 299 298 297 297 296 295 293 289 283 277 274 272 270 269 268 266 264 263 262 260 257 254 251 248 245 244 245 245 245 245 246 246 246 246 247 248 248 248 248
282 281 279 277 275 274 272 270 269 268 268 268 270 272 274 277 278 279 279 279 278 277 277 276 275 275 277 279 280 282 283 284 285 285 285 286 288 289 290 290 291 293 294 296 298 299 299 297 296 295 295 294 293 290 286 281 277 274 271 270 269 268 267 266 265 263 261 258 255 251 247 245 244 244 245 244 244 245 245 245 245 246 247 247 247
284 283 280 278 275 272 271 270 269 269 269 270 271 274 276 277 279 280 280 279 279 278 277 276 274 274 275 278 280 281 281 282 284 285 286 287 289 289 289 290 291 292 294 295 295 297 298 297 296 295 294 293 292 290 286 282 278 275 273 271 270 269 269 268 267 266 264 261 256 251 248 246 244 244 245 244 243 243 243 243 244 245 246 245 245
284 283 281 279 275 273 271 271 271 271 272 272 273 275 277 278 279 280 280 280 279 278 277 276 273 272 274 277 278 279 279 281 283 284 286 288 289 289 289 290 291 292 292 293 294 297 298 298 296 295 295 294 292 290 286 282 278 275 274 272 271 270 270 269 269 268 266 262 256 250 246 245 244 244 244 245 244 243 243 242 242 243 244 245 245
284 282 282 280 277 274 273 273 273 274 274 275 276 277 278 279 280 281 281 281 280 279 278 276 273 272 274 276 277 278 279 281 283 283 284 287 289 289 289 290 291 292 292 292 295 298 298 297 297 296 295 295 293 290 287 283 278 275 273 272 271 270 270 270 269 268 267 263 256 249 244 243 243 243 243 244 244 243 242 241 241 241 242 244 244
284 282 282 281 278 275 275 275 275 276 277 277 278 279 280 281 282 282 282 282 281 280 279 277 274 273 275 277 279 280 282 283 284 284 284 285 287 288 289 290 291 291 291 293 296 298 297 297 297 296 296 295 294 291 287 283 278 274 271 270 269 269 269 269 269 268 267 264 259 252 246 243 242 242 242 243 244 244 243 242 240 240 241 241 242
284 283 282 281 278 277 276 276 277 278 279 279 280 281 281 282 282 282 282 282 281 281 279 277 275 275 278 280 281 282 284 285 286 286 286 286 285 286 288 290 291 290 291 294 297 297 297 297 297 297 297 296 295 292 288 282 277 273 270 268 267 267 267 267 267 268 267 265 262 256 249 245 243 242 243 242 243 243 243 242 240 239 239 240 240
284 283 282 281 280 278 278 278 280 281 281 281 281 281 281 282 282 282 283 282 282 281 280 277 276 277 280 282 283 284 286 287 287 288 288 287 286 286 288 290 290 291 292 295 296 296 297 297 297 298 298 297 295 292 288 283 278 273 269 267 266 265 265 265 265 265 266 265 263 259 253 248 245 243 242 242 243 243 242 242 241 239 238 239 239
282 282 282 282 280 279 279 280 281 282 282 281 281 281 281 281 282 283 283 283 283 282 280 278 278 280 282 284 285 286 287 288 288 289 288 288 288 288 289 289 289 290 293 296 297 297 297 298 298 299 298 297 295 291 287 283 278 274 270 267 265 264 264 263 263 263 263 264 263 261 256 251 248 246 243 242 242 243 242 241 241 240 238 238 238
282 282 282 282 281 280 281 281 282 282 282 282 282 282 282 282 282 283 284 285 285 283 281 279 280 283 285 286 286 287 287 288 288 288 288 288 289 290 289 289 289 291 294 297 298 298 298 299 299 299 299 297 294 291 287 283 278 274 271 268 266 265 263 263 262 262 261 261 261 261 259 255 250 248 246 243 241 242 243 242 241 240 239 237 237
282 282 282 282 282 282 282 282 283 283 282 282 283 284 284 284 284 285 286 287 286 285 283 282 283 285 286 287 287 288 288 289 288 289 289 290 290 290 290 290 290 292 296 298 299 299 299 300 300 300 299 297 294 292 288 284 280 275 272 268 266 264 263 262 261 261 260 259 259 259 259 257 253 249 247 245 243 240 241 242 241 240 239 237 236
283 283 283 282 283 283 283 283 283 283 283 284 285 285 286 286 286 287 287 287 287 286 285 284 285 286 286 287 288 289 289 289 290 290 291 291 290 291 291 291 292 294 297 298 299 299 300 300 300 299 298 296 295 292 289 286 282 278 274 270 267 265 263 262 261 260 259 258 258 257 257 257 255 251 246 245 244 242 240 240 240 240 239 237 235
285 285 284 283 283 283 283 283 283 283 284 285 285 286 287 288 288 288 288 288 287 286 285 285 285 285 286 287 288 289 290 291 292 292 292 291 291 292 292 293 295 297 299 299 299 300 301 301 300 299 297 295 294 292 290 286 283 279 276 273 270 267 265 263 261 259 258 257 256 256 255 255 254 252 248 243 243 243 241 239 239 239 238 237 235
286 286 285 284 284 284 283 283 284 284 284 285 286 286 287 287 287 288 289 288 287 286 285 285 285 286 287 288 289 290 291 292 293 292 292 292 293 293 295 296 298 300 301 302 303 304 304 302 300 299 297 295 293 291 289 286 283 280 276 274 271 269 268 266 263 261 259 257 256 254 253 253 253 252 249 244 240 241 241 239 237 237 237 236 234
288 287 286 286 285 285 285 285 285 286 286 287 287 288 288 288 288 289 289 288 287 286 285 285 285 286 287 288 289 291 292 293 292 292 292 293 294 296 298 301 302 303 304 306 308 311 311 305 301 299 296 294 293 291 288 285 283 280 276 274 272 270 269 268 266 263 260 258 256 254 253 252 252 251 249 245 240 237 239 239 237 236 236 235 233
290 288 287 287 287 287 287 287 287 288 288 288 289 289 289 289 289 289 289 288 287 285 285 285 286 286 288 290 291 292 292 292 292 293 293 294 296 298 301 303 305 306 307 308 310 314 315 310 303 299 297 294 292 290 287 284 282 280 278 275 273 270 269 267 266 263 261 258 256 254 252 250 249 248 247 245 240 235 235 237 237 235 234 234 232
291 290 288 288 288 288 288 289 289 289 289 290 290 290 289 289 289 289 288 287 286 286 285 285 286 287 289 291 292 292 292 292 293 293 294 295 297 300 302 303 305 307 309 310 311 313 315 312 306 301 298 295 292 289 286 283 281 279 278 276 274 272 269 267 265 263 261 258 255 253 251 249 247 245 244 243 240 234 231 233 235 233 232 232 231
291 290 290 289 289 289 289 290 290 290 291 291 290 290 289 289 288 288 287 287 286 285 285 286 288 289 291 292 292 292 292 293 294 294 294 295 297 299 301 303 305 307 308 309 311 313 314 312 307 302 299 296 293 290 286 283 282 280 278 277 276 274 272 269 267 265 263 261 258 255 252 250 248 245 243 240 238 234 229 229 232 232 230 230 230
289 290 290 290 290 290 290 290 291 291 291 291 290 290 289 289 288 287 287 286 286 285 286 288 290 291 291 291 291 292 293 294 295 295 294 294 296 298 301 303 305 307 308 309 310 312 313 310 307 303 299 296 293 290 286 284 283 282 282 280 279 277 275 273 271 268 266 263 259 256 253 251 248 246 243 239 237 233 228 225 227 230 229 227 228
287 288 289 290 290 290 290 291 291 292 292 292 291 291 291 290 288 287 286 286 286 287 289 290 291 291 291 291 292 294 296 296 296 295 294 294 296 299 302 305 307 308 309 309 310 312 312 309 306 303 300 296 293 290 289 287 286 285 285 284 282 280 277 274 270 267 264 261 258 255 253 250 248 245 242 238 235 232 228 224 224 227 227 225 226
287 288 288 289 289 289 290 290 291 292 292 291 291 291 291 290 288 287 286 286 287 289 290 291 290 290 291 292 295 296 296 296 296 296 295 295 297 301 304 307 309 310 310 310 311 311 310 308 306 304 302 298 295 293 292 291 290 289 288 285 282 279 274 270 266 263 261 260 258 255 252 249 246 243 239 236 234 231 227 224 222 224 225 223 223
286 286 286 287 287 288 289 289 290 290 290 290 290 290 290 289 288 287 287 287 289 290 291 290 290 291 293 295 296 297 297 297 297 297 296 297 300 303 306 309 310 311 311 311 310 309 308 308 307 306 304 301 298 297 295 294 293 290 287 283 278 272 267 264 263 262 261 260 259 256 253 249 245 242 237 233 230 228 226 224 222 222 223 222 221
285 285 285 285 286 287 287 287 288 288 289 289 289 290 290 289 287 287 287 289 291 291 290 291 292 293 294 296 297 297 297 298 298 297 298 299 302 305 308 310 311 312 312 311 309 308 307 308 308 307 305 303 301 300 298 295 292 287 282 277 271 266 263 263 265 266 265 263 259 256 253 250 245 241 236 231 226 225 224 223 221 220 221 221 219
283 283 284 284 285 285 286 286 286 287 287 288 289 290 289 288 287 288 289 290 290 290 291 293 293 294 295 296 297 297 298 298 298 298 299 301 303 306 309 311 312 312 313 311 309 308 308 308 308 307 306 305 304 301 298 293 286 280 276 273 269 266 265 267 271 273 271 266 261 256 252 248 244 239 236 230 224 221 220 221 220 219 219 219 218
282 283 283 283 284 284 284 285 285 285 286 287 288 289 288 288 289 290 290 291 291 292 293 293 294 294 295 295 296 297 298 299 298 298 299 301 304 307 310 311 312 313 313 312 310 308 308 308 308 307 307 306 304 300 295 287 280 276 274 272 271 271 271 273 276 277 274 268 261 254 249 245 241 238 235 230 223 218 216 217 219 218 218 218 217
282 282 282 283 283 283 283 284 284 285 286 287 288 288 288 289 290 291 291 291 292 293 294 294 294 294 295 295 296 298 298 298 298 298 300 302 305 308 310 311 312 313 313 312 310 309 308 308 308 308 308 307 303 297 289 281 278 278 275 271 271 275 278 279 281 280 275 268 260 251 245 241 237 236 234 229 222 217 213 213 215 217 217 217 215
281 282 282 283 283 283 283 283 284 286 287 288 288 288 288 289 290 291 292 292 293 294 294 295 295 295 295 296 297 298 298 298 298 299 300 303 305 307 309 311 312 313 313 312 311 310 309 310 310 310 309 306 300 292 285 279 278 278 277 274 274 276 280 282 284 283 276 266 258 250 243 239 236 235 232 228 222 216 212 210 212 214 216 215 214
283 283 283 283 284 284 285 285 287 287 287 287 287 287 287 289 291 292 292 293 294 294 294 294 295 295 296 297 297 297 297 297 298 299 301 303 305 308 310 312 313 314 314 313 311 310 311 311 312 310 308 303 296 288 282 278 277 277 278 278 279 279 281 283 284 283 276 265 255 249 243 240 237 234 230 226 221 216 212 208 208 211 213 214 213
286 285 285 285 286 286 287 287 287 286 286 287 286 285 287 290 292 292 292 293 294 294 294 295 295 296 296 297 297 297 297 297 299 300 303 306 308 311 312 314 314 315 314 313 312 311 312 313 312 310 305 299 293 287 281 275 275 276 277 279 281 282 283 286 285 280 275 265 253 247 241 237 234 230 226 223 219 215 212 208 206 206 209 211 211
290 289 288 288 288 288 287 287 286 286 286 286 285 285 289 291 291 291 292 293 294 295 295 296 296 296 296 297 297 297 298 299 301 303 306 309 311 313 314 315 316 315 314 314 314 314 314 314 312 308 301 294 290 287 281 275 273 275 277 279 281 282 283 287 286 278 271 264 252 241 230 222 222 223 221 219 217 215 212 209 206 204 206 208 209
291 290 288 288 288 287 287 287 287 288 287 286 286 288 290 291 291 292 293 294 295 296 296 296 296 296 296 297 297 298 299 301 304 306 309 311 313 314 316 317 316 315 314 315 315 315 315 314 309 304 297 291 288 285 282 277 274 274 276 278 280 280 281 285 285 275 268 264 251 233 218 213 217 219 216 215 216 214 211 209 205 203 203 206 207
290 289 289 288 288 288 289 290 291 290 288 286 287 288 289 290 291 294 295 296 296 296 296 297 296 296 297 297 298 300 302 305 307 309 311 312 314 316 317 317 315 314 314 315 315 315 314 311 305 299 295 290 287 284 281 278 275 274 274 275 277 278 278 281 281 273 266 263 253 234 220 216 221 221 216 213 214 213 211 209 206 203 202 204 206
290 290 290 290 291 291 292 293 293 293 290 287 286 287 288 290 292 295 296 296 296 296 296 296 296 297 297 298 300 302 305 308 310 311 313 314 316 317 318 317 315 314 315 315 315 314 312 306 299 296 293 290 287 284 281 279 276 272 271 270 272 274 275 276 276 272 265 263 258 248 234 224 224 225 217 212 213 212 210 208 206 203 202 203 205
289 290 291 293 294 295 296 296 295 293 290 287 285 286 287 290 293 295 296 296 295 295 296 296 297 298 299 300 303 305 308 310 312 314 315 317 318 319 318 318 316 315 316 316 315 314 309 300 296 295 293 290 288 285 282 279 276 273 269 266 266 269 270 270 271 269 265 262 261 260 251 236 230 228 220 214 213 212 210 209 206 204 202 202 203
290 291 293 295 297 298 299 298 295 292 289 286 285 286 288 290 293 294 294 294 294 295 295 296 298 300 302 304 306 308 310 313 314 316 317 318 319 319 318 318 317 317 317 317 316 314 307 296 294 295 292 290 289 286 283 280 276 273 269 264 262 263 265 265 266 265 263 260 259 262 260 245 236 234 226 217 215 212 210 209 207 204 203 202 203
289 291 293 295 299 300 299 297 295 292 289 286 285 286 288 289 291 292 292 293 293 294 295 298 300 303 305 307 309 311 313 315 317 318 319 319 319 319 318 317 318 318 318 318 317 313 304 297 296 295 293 292 291 289 286 282 277 272 268 263 259 259 260 261 261 261 259 257 256 259 260 248 239 240 233 222 217 213 209 208 207 205 203 202 203
290 292 293 296 298 300 299 299 297 294 291 288 287 287 288 289 290 291 291 292 293 294 296 299 303 306 308 310 312 314 316 317 318 319 318 318 318 318 317 317 318 319 319 318 316 310 301 298 299 297 296 297 296 294 291 287 281 274 268 263 257 254 255 255 256 256 255 253 251 253 255 248 239 239 234 225 219 214 209 207 206 205 203 202 203
293 295 296 297 298 299 300 300 299 297 294 291 289 288 289 289 290 290 291 291 293 295 297 301 304 307 310 312 314 315 317 318 319 319 318 317 318 318 317 317 319 320 320 318 315 307 298 298 298 298 299 299 298 297 296 292 286 278 271 264 257 252 250 248 250 252 251 249 246 247 248 245 238 235 230 224 219 215 210 207 205 204 203 202 202
Height
5809 5809 5808 5808 5808 5808 5808 5808 5808 5808 5808 5808 5808 5808 5807 5807 5807 5807 5807 5808 5808 5808 5808 5808 5808 5808 5808 5808 5809 5809 5808 5808 5808 5808 5808 5808 5808 5808 5807 5807 5806 5806 5805 5805 5805 5805 5806 5806 5805 5805 5805 5805 5805 5805 5805 5804 5804 5804 5805 5805 5806 5807 5808 5809 5810 5812 5813 5814 5814 5814 5815 5817 5817 5818 5820 5822 5823 5824 5826 5827 5830 5833 5835 5836 5838
5804 5804 5803 5803 5803 5803 5803 5803 5803 5804 5803 5803 5803 5803 5802 5802 5802 5802 5802 5802 5803 5803 5803 5803 5802 5802 5803 5803 5803 5803 5802 5802 5802 5802 5802 5802 5802 5802 5801 5801 5800 5800 5799 5799 5799 5798 5798 5798 5798 5798 5798 5798 5798 5798 5798 5798 5798 5797 5798 5798 5799 5800 5801 5802 5803 5805 5807 5808 5808 5808 5809 5811 5812 5813 5814 5816 5818 5819 5821 5823 5825 5827 5830 5832 5834
5800 5799 5798 5798 5798 5798 5798 5798 5798 5798 5798 5798 5798 5798 5797 5797 5797 5797 5797 5797 5797 5797 5797 5797 5797 5796 5797 5797 5797 5796 5796 5796 5797 5797 5797 5797 5797 5796 5796 5795 5795 5794 5794 5793 5792 5791 5791 5791 5791 5791 5791 5790 5790 5790 5790 5791 5791 5791 5791 5791 5791 5792 5794 5795 5796 5797 5799 5801 5802 5802 5803 5804 5806 5807 5809 5810 5812 5814 5816 5818 5820 5822 5825 5827 5830
5795 5794 5794 5793 5793 5793 5792 5793 5793 5793 5792 5792 5792 5792 5792 5791 5791 5791 5791 5791 5791 5791 5791 5791 5791 5791 5791 5790 5790 5790 5790 5790 5790 5791 5791 5791 5791 5791 5791 5790 5790 5789 5788 5787 5786 5785 5784 5783 5783 5783 5783 5782 5782 5782 5782 5782 5783 5783 5783 5784 5784 5785 5786 5787 5788 5789 5792 5794 5795 5796 5797 5798 5799 5801 5803 5804 5806 5808 5810 5812 5814 5817 5819 5820 5823
5790 5789 5789 5788 5787 5787 5787 5787 5787 5787 5786 5786 5786 5786 5786 5786 5786 5786 5786 5786 5786 5786 5786 5786 5785 5785 5784 5784 5784 5783 5783 5783 5784 5784 5784 5784 5784 5785 5784 5784 5784 5783 5782 5781 5780 5779 5777 5776 5775 5774 5774 5774 5774 5774 5773 5773 5774 5775 5776 5776 5777 5778 5778 5779 5780 5781 5784 5786 5788 5789 5790 5792 5793 5794 5797 5798 5799 5802 5804 5806 5809 5811 5813 5814 5816
5785 5784 5783 5782 5782 5781 5781 5781 5781 5781 5780 5780 5780 5780 5780 5780 5780 5780 5780 5780 5780 5780 5780 5780 5780 5779 5778 5778 5777 5777 5777 5777 5777 5777 5777 5777 5777 5777 5777 5777 5776 5776 5775 5774 5773 5772 5770 5769 5767 5766 5766 5766 5766 5766 5765 5765 5765 5766 5768 5769 5769 5770 5771 5772 5772 5774 5776 5778 5780 5782 5783 5785 5787 5787 5789 5792 5793 5795 5798 5800 5803 5805 5806 5808 5810
5780 5778 5778 5777 5776 5776 5776 5775 5775 5775 5775 5775 5775 5775 5774 5774 5775 5774 5774 5774 5774 5774 5774 5774 5774 5773 5772 5771 5771 5770 5771 5771 5771 5771 5770 5770 5770 5769 5769 5768 5769 5768 5768 5767 5766 5764 5763 5762 5760 5759 5758 5757 5758 5758 5758 5757 5757 5758 5759 5761 5762 5762 5763 5764 5765 5765 5767 5770 5772 5774 5776 5778 5780 5781 5782 5785 5787 5789 5791 5793 5796 5799 5800 5801 5804
5775 5773 5772 5772 5771 5770 5770 5769 5769 5769 5769 5769 5769 5769 5769 5769 5769 5768 5768 5768 5768 5768 5768 5768 5767 5766 5765 5765 5764 5764 5764 5764 5764 5764 5763 5763 5763 5762 5761 5760 5760 5760 5760 5759 5758 5757 5756 5755 5753 5751 5749 5749 5749 5749 5749 5749 5749 5749 5750 5751 5753 5755 5755 5756 5757 5758 5759 5761 5763 5766 5768 5770 5772 5774 5776 5778 5780 5782 5785 5787 5790 5793 5794 5796 5797
5769 5768 5767 5766 5766 5765 5764 5764 5763 5763 5764 5764 5764 5763 5763 5763 5762 5762 5762 5762 5761 5761 5761 5761 5761 5760 5759 5758 5758 5757 5757 5757 5756 5756 5757 5756 5756 5755 5754 5753 5752 5752 5751 5751 5750 5749 5748 5746 5745 5743 5742 5741 5740 5741 5741 5741 5741 5741 5741 5742 5744 5746 5747 5747 5748 5749 5750 5752 5754 5757 5759 5761 5764 5766 5769 5771 5773 5775 5778 5781 5783 5786 5788 5790 5791
5764 5763 5762 5761 5760 5759 5759 5758 5758 5758 5758 5758 5758 5758 5757 5757 5756 5756 5755 5755 5755 5754 5754 5754 5753 5753 5752 5751 5751 5750 5750 5750 5750 5750 5750 5750 5748 5747 5747 5746 5745 5743 5742 5742 5741 5740 5739 5737 5736 5735 5734 5733 5733 5733 5733 5733 5732 5732 5732 5733 5735 5736 5738 5739 5739 5740 5741 5743 5744 5747 5750 5752 5755 5757 5760 5763 5766 5768 5771 5773 5776 5778 5781 5784 5786
5758 5757 5756 5755 5754 5754 5753 5753 5752 5752 5752 5752 5752 5752 5751 5750 5750 5749 5749 5748 5748 5748 5747 5747 5746 5745 5745 5744 5743 5743 5743 5742 5743 5743 5743 5743 5741 5740 5739 5738 5737 5736 5734 5733 5732 5731 5729 5728 5727 5726 5726 5725 5725 5725 5725 5725 5725 5725 5724 5724 5726 5727 5728 5729 5730 5730 5731 5733 5735 5737 5740 5743 5745 5748 5751 5755 5758 5761 5763 5766 5768 5770 5774 5777 5780
5753 5752 5751 5750 5749 5748 5747 5747 5746 5746 5746 5746 5746 5745 5745 5744 5744 5743 5743 5741 5741 5741 5740 5740 5739 5738 5738 5737 5736 5736 5735 5735 5735 5736 5735 5735 5734 5733 5732 5730 5729 5728 5726 5725 5724 5722 5720 5719 5718 5717 5717 5717 5717 5717 5717 5718 5718 5717 5717 5716 5717 5717 5718 5719 5720 5721 5722 5724 5726 5727 5729 5732 5736 5738 5741 5745 5749 5753 5756 5758 5760 5763 5767 5769 5772
5747 5746 5745 5744 5743 5742 5742 5741 5741 5740 5740 5740 5739 5739 5738 5738 5737 5737 5737 5735 5734 5734 5733 5733 5732 5731 5731 5730 5729 5728 5728 5728 5729 5729 5728 5727 5726 5726 5725 5723 5722 5720 5719 5718 5716 5714 5712 5711 5710 5709 5708 5708 5708 5708 5708 5709 5709 5709 5709 5708 5708 5708 5709 5710 5711 5712 5713 5714 5716 5718 5720 5722 5725 5729 5732 5735 5739 5744 5747 5751 5753 5756 5759 5762 5765
5741 5740 5739 5738 5737 5737 5736 5735 5734 5734 5734 5733 5733 5733 5732 5732 5732 5731 5730 5730 5728 5727 5726 5725 5725 5724 5724 5724 5722 5721 5719 5720 5722 5722 5721 5720 5719 5719 5717 5716 5715 5712 5711 5710 5709 5706 5704 5702 5702 5701 5700 5699 5699 5699 5699 5699 5699 5700 5700 5699 5699 5699 5700 5700 5701 5702 5703 5705 5706 5708 5711 5713 5715 5718 5722 5725 5729 5734 5738 5742 5746 5748 5751 5755 5757
5735 5734 5732 5731 5731 5730 5730 5729 5728 5727 5727 5727 5727 5727 5726 5726 5725 5725 5724 5723 5722 5720 5719 5718 5717 5716 5715 5716 5715 5715 5713 5711 5713 5714 5712 5713 5712 5710 5710 5708 5706 5705 5703 5702 5700 5698 5696 5694 5693 5692 5691 5690 5690 5690 5689 5690 5689 5689 5690 5690 5690 5690 5690 5690 5691 5692 5694 5695 5697 5699 5701 5703 5706 5708 5712 5715 5719 5724 5729 5733 5737 5740 5743 5747 5750
5728 5727 5726 5725 5724 5724 5723 5722 5722 5721 5721 5721 5721 5721 5720 5719 5719 5718 5718 5717 5715 5713 5711 5710 5709 5707 5707 5707 5706 5707 5706 5704 5706 5706 5703 5703 5704 5701 5700 5699 5698 5696 5695 5693 5691 5689 5687 5685 5684 5683 5682 5681 5680 5680 5679 5679 5679 5679 5679 5680 5680 5680 5680 5681 5681 5682 5683 5685 5687 5689 5691 5693 5696 5699 5702 5705 5709 5713 5718 5723 5727 5731 5735 5738 5741
5721 5720 5719 5718 5718 5717 5717 5716 5716 5715 5715 5715 5714 5714 5713 5712 5711 5711 5710 5710 5709 5706 5703 5702 5700 5699 5698 5697 5696 5697 5697 5695 5697 5700 5697 5694 5694 5693 5691 5689 5688 5687 5685 5684 5681 5680 5678 5676 5674 5672 5671 5670 5669 5669 5669 5668 5668 5668 5669 5669 5669 5669 5670 5670 5671 5672 5673 5674 5676 5678 5681 5683 5686 5689 5692 5695 5699 5703 5707 5712 5717 5720 5725 5729 5732
5715 5714 5713 5712 5711 5711 5710 5709 5709 5709 5708 5708 5707 5707 5706 5705 5704 5703 5702 5701 5701 5699 5696 5694 5692 5690 5688 5687 5686 5686 5687 5686 5685 5689 5691 5689 5685 5683 5682 5680 5677 5676 5675 5674 5671 5669 5667 5665 5663 5662 5660 5659 5659 5658 5657 5657 5657 5656 5657 5658 5658 5658 5658 5659 5660 5662 5663 5664 5666 5668 5670 5673 5676 5678 5682 5685 5688 5693 5696 5701 5707 5710 5714 5719 5724
5709 5708 5707 5706 5705 5704 5703 5703 5702 5701 5701 5700 5700 5699 5698 5697 5695 5694 5693 5692 5692 5691 5689 5686 5684 5682 5680 5678 5677 5674 5674 5675 5674 5674 5679 5684 5681 5674 5670 5669 5668 5666 5665 5664 5661 5658 5657 5654 5651 5650 5649 5647 5647 5646 5645 5645 5644 5644 5645 5646 5646 5647 5647 5648 5649 5650 5652 5655 5656 5657 5659 5661 5665 5668 5671 5675 5678 5682 5686 5690 5695 5700 5704 5709 5715
5703 5702 5701 5700 5699 5698 5697 5696 5695 5694 5694 5693 5692 5691 5690 5688 5687 5685 5684 5683 5682 5682 5680 5678 5676 5673 5671 5669 5667 5665 5663 5662 5662 5660 5662 5670 5676 5671 5662 5657 5656 5656 5655 5654 5651 5647 5645 5643 5640 5638 5636 5635 5634 5632 5632 5632 5632 5633 5633 5633 5633 5635 5635 5636 5637 5638 5640 5643 5645 5648 5649 5651 5653 5657 5660 5664 5667 5671 5675 5679 5683 5689 5694 5698 5705
5697 5696 5695 5694 5693 5692 5691 5690 5689 5688 5686 5685 5684 5683 5682 5680 5679 5677 5676 5674 5673 5672 5671 5669 5667 5665 5662 5659 5657 5655 5654 5651 5649 5648 5647 5651 5659 5664 5658 5649 5644 5644 5644 5642 5641 5637 5634 5632 5629 5627 5624 5623 5621 5619 5618 5619 5620 5621 5621 5621 5621 5621 5623 5623 5625 5627 5628 5630 5633 5636 5639 5641 5642 5645 5649 5652 5656 5660 5664 5668 5672 5678 5683 5687 5693
5691 5690 5689 5688 5687 5686 5685 5684 5683 5681 5680 5678 5677 5675 5674 5672 5670 5669 5667 5665 5664 5663 5661 5659 5657 5655 5652 5650 5648 5646 5644 5642 5638 5636 5635 5635 5639 5647 5649 5643 5636 5635 5633 5630 5628 5626 5624 5621 5617 5615 5613 5610 5608 5606 5606 5605 5606 5607 5608 5609 5609 5608 5609 5610 5612 5613 5615 5617 5619 5622 5626 5630 5632 5633 5636 5641 5644 5648 5653 5657 5661 5666 5672 5677 5682
5684 5683 5682 5681 5680 5679 5678 5677 5676 5675 5673 5671 5669 5668 5666 5664 5662 5660 5658 5656 5655 5653 5652 5650 5648 5645 5642 5640 5639 5637 5634 5633 5629 5626 5624 5622 5623 5629 5633 5630 5627 5627 5622 5618 5616 5613 5611 5610 5607 5603 5600 5598 5597 5595 5595 5594 5593 5594 5595 5594 5594 5595 5595 5596 5598 5599 5601 5604 5605 5608 5611 5616 5621 5623 5625 5628 5632 5636 5641 5645 5650 5655 5660 5666 5671
5677 5676 5675 5674 5673 5672 5671 5670 5669 5667 5666 5664 5662 5661 5658 5656 5654 5652 5650 5648 5646 5644 5642 5640 5638 5636 5633 5630 5629 5627 5624 5622 5620 5617 5613 5610 5609 5613 5616 5615 5615 5619 5614 5606 5604 5602 5598 5596 5594 5592 5588 5586 5585 5584 5583 5583 5582 5581 5581 5581 5580 5580 5581 5582 5583 5585 5586 5589 5591 5593 5597 5600 5605 5610 5614 5616 5619 5624 5629 5633 5639 5643 5649 5655 5661
5669 5668 5667 5666 5665 5664 5663 5662 5661 5659 5658 5656 5655 5653 5651 5648 5646 5643 5642 5640 5638 5636 5633 5631 5629 5626 5624 5621 5619 5617 5614 5611 5609 5606 5602 5599 5597 5597 5600 5600 5600 5605 5606 5600 5593 5591 5589 5585 5581 5579 5577 5575 5573 5572 5570 5568 5568 5568 5566 5565 5566 5565 5566 5567 5567 5569 5571 5572 5575 5578 5581 5585 5589 5594 5600 5604 5607 5611 5616 5621 5626 5632 5637 5643 5650
5662 5660 5659 5658 5657 5656 5655 5654 5653 5651 5650 5649 5647 5645 5643 5640 5638 5635 5633 5631 5629 5627 5624 5622 5620 5617 5615 5613 5610 5607 5604 5600 5598 5595 5590 5587 5584 5581 5582 5586 5586 5588 5591 5591 5586 5580 5578 5576 5571 5565 5562 5562 5561 5558 5557 5555 5552 5552 5549 5547 5548 5549 5549 5551 5551 5553 5554 5556 5558 5561 5563 5567 5572 5577 5583 5589 5594 5598 5602 5608 5614 5619 5624 5631 5639
5654 5653 5652 5650 5649 5648 5647 5646 5645 5643 5642 5641 5639 5637 5635 5632 5629 5626 5624 5622 5620 5618 5615 5613 5611 5608 5606 5604 5602 5599 5595 5591 5588 5584 5579 5575 5572 5568 5564 5565 5570 5574 5575 5576 5576 5573 5567 5562 5561 5556 5548 5546 5546 5542 5540 5540 5537 5536 5533 5529 5529 5531 5531 5532 5534 5534 5535 5537 5539 5542 5546 5549 5554 5559 5565 5572 5579 5584 5588 5594 5600 5607 5612 5619 5627
5647 5646 5644 5643 5641 5640 5638 5637 5636 5635 5633 5632 5630 5628 5626 5623 5620 5617 5615 5613 5612 5609 5606 5604 5602 5600 5598 5595 5593 5590 5585 5582 5578 5574 5569 5564 5560 5556 5552 5547 5546 5553 5559 5562 5564 5565 5559 5549 5545 5545 5538 5531 5530 5527 5522 5521 5520 5516 5514 5512 5511 5513 5513 5511 5511 5513 5515 5517 5519 5522 5527 5532 5536 5541 5547 5554 5561 5568 5574 5579 5586 5593 5599 5606 5614
5639 5638 5636 5635 5633 5632 5630 5629 5628 5626 5625 5623 5622 5620 5617 5614 5611 5609 5607 5605 5603 5600 5597 5595 5593 5591 5589 5586 5583 5580 5576 5572 5568 5563 5558 5554 5550 5545 5541 5537 5530 5529 5534 5540 5548 5554 5550 5540 5531 5527 5525 5519 5515 5512 5506 5503 5502 5497 5492 5492 5493 5496 5497 5492 5487 5489 5492 5495 5498 5501 5505 5511 5516 5522 5527 5535 5543 5551 5558 5564 5571 5578 5586 5593 5600
5632 5630 5629 5627 5626 5624 5622 5621 5619 5617 5616 5615 5613 5611 5608 5606 5603 5600 5598 5597 5594 5591 5588 5586 5583 5581 5579 5576 5573 5570 5566 5562 5558 5553 5548 5544 5540 5536 5531 5527 5521 5514 5510 5511 5523 5538 5536 5528 5521 5513 5508 5504 5499 5495 5490 5484 5483 5480 5475 5472 5472 5474 5476 5472 5466 5464 5466 5470 5475 5478 5482 5487 5494 5500 5507 5515 5524 5532 5541 5548 5555 5563 5572 5579 5587
5624 5623 5621 5619 5618 5616 5614 5612 5611 5609 5607 5606 5604 5602 5600 5597 5595 5592 5590 5588 5586 5582 5579 5576 5574 5571 5569 5566 5563 5559 5555 5552 5547 5542 5538 5534 5530 5526 5522 5517 5510 5503 5496 5488 5493 5513 5519 5512 5509 5503 5493 5487 5480 5475 5472 5468 5464 5460 5457 5455 5454 5453 5448 5444 5442 5441 5441 5445 5449 5453 5457 5463 5469 5477 5485 5494 5504 5513 5522 5531 5539 5547 5556 5565 5573
5617 5615 5613 5611 5610 5608 5606 5603 5602 5600 5599 5597 5595 5593 5591 5589 5586 5584 5581 5579 5576 5573 5570 5566 5563 5561 5559 5556 5551 5548 5544 5540 5536 5531 5527 5523 5519 5515 5510 5506 5501 5492 5485 5474 5469 5482 5495 5494 5492 5490 5483 5473 5465 5456 5449 5450 5449 5441 5436 5434 5432 5427 5420 5415 5415 5415 5416 5419 5422 5426 5431 5437 5444 5452 5461 5472 5483 5493 5504 5514 5523 5531 5541 5551 5560
5609 5607 5605 5604 5601 5600 5597 5595 5593 5592 5590 5589 5586 5584 5582 5580 5578 5575 5573 5571 5568 5564 5561 5557 5554 5551 5548 5545 5540 5536 5532 5528 5525 5520 5517 5512 5507 5504 5498 5493 5490 5482 5472 5462 5453 5454 5465 5472 5471 5471 5468 5458 5452 5443 5428 5426 5428 5421 5414 5410 5403 5396 5391 5389 5390 5390 5391 5394 5397 5402 5406 5411 5418 5426 5436 5447 5459 5473 5485 5496 5506 5515 5524 5535 5545
5600 5599 5597 5595 5593 5591 5589 5586 5585 5583 5581 5579 5577 5575 5573 5571 5569 5566 5564 5562 5558 5555 5552 5548 5544 5541 5538 5534 5529 5525 5521 5517 5514 5509 5505 5501 5496 5492 5488 5481 5476 5471 5460 5448 5439 5433 5436 5445 5448 5449 5449 5439 5432 5429 5415 5404 5402 5395 5387 5383 5376 5369 5367 5367 5368 5371 5373 5375 5378 5382 5386 5390 5395 5401 5410 5421 5435 5451 5465 5478 5489 5498 5507 5519 5530
5591 5589 5587 5585 5583 5581 5579 5577 5576 5574 5572 5570 5568 5566 5564 5562 5560 5557 5554 5552 5549 5546 5542 5538 5535 5531 5527 5524 5519 5514 5510 5507 5503 5499 5494 5491 5486 5481 5477 5471 5463 5458 5450 5437 5427 5419 5415 5420 5423 5423 5425 5419 5410 5408 5399 5386 5378 5368 5360 5358 5353 5350 5351 5351 5352 5356 5360 5361 5361 5363 5366 5370 5374 5380 5387 5398 5412 5429 5445 5458 5470 5480 5490 5502 5514
5582 5580 5578 5576 5574 5571 5569 5567 5566 5564 5562 5560 5558 5557 5555 5553 5551 5548 5545 5542 5539 5536 5533 5529 5525 5522 5518 5513 5508 5504 5500 5496 5493 5489 5484 5480 5476 5470 5465 5460 5452 5445 5438 5428 5418 5409 5401 5400 5401 5399 5397 5393 5387 5382 5375 5365 5357 5347 5340 5339 5338 5338 5339 5339 5338 5341 5344 5344 5343 5345 5347 5351 5355 5361 5367 5377 5390 5406 5422 5436 5449 5461 5473 5485 5499
5572 5570 5568 5566 5564 5562 5559 5557 5556 5554 5552 5551 5549 5547 5545 5543 5541 5538 5535 5533 5530 5526 5523 5519 5515 5511 5507 5503 5498 5494 5490 5487 5483 5478 5475 5470 5465 5461 5455 5448 5441 5434 5426 5418 5409 5400 5391 5385 5383 5379 5375 5369 5362 5357 5350 5343 5337 5332 5327 5326 5326 5327 5327 5327 5326 5326 5327 5327 5326 5327 5330 5333 5337 5343 5349 5357 5369 5383 5399 5416 5432 5445 5457 5470 5483
5562 5560 5558 5556 5554 5552 5550 5548 5546 5545 5543 5541 5539 5537 5535 5533 5531 5529 5526 5523 5520 5516 5513 5509 5504 5500 5497 5492 5489 5484 5480 5477 5473 5468 5465 5460 5455 5451 5445 5437 5430 5423 5415 5407 5398 5390 5383 5376 5369 5362 5357 5350 5341 5335 5331 5325 5321 5319 5317 5315 5316 5316 5315 5315 5314 5312 5310 5309 5310 5311 5313 5316 5321 5325 5331 5339 5349 5362 5378 5396 5415 5431 5443 5455 5469
5553 5551 5549 5547 5545 5543 5541 5539 5537 5535 5533 5531 5530 5528 5525 5523 5522 5519 5516 5513 5510 5506 5502 5498 5494 5490 5487 5482 5478 5475 5470 5466 5463 5458 5454 5449 5445 5440 5434 5427 5420 5413 5405 5397 5388 5380 5372 5365 5357 5347 5339 5333 5325 5318 5317 5313 5309 5308 5306 5305 5307 5307 5302 5301 5302 5301 5297 5294 5295 5297 5299 5302 5305 5309 5315 5322 5332 5345 5360 5378 5398 5415 5429 5442 5455
5543 5541 5539 5537 5535 5533 5531 5529 5527 5525 5524 5522 5520 5518 5516 5514 5512 5510 5507 5503 5499 5495 5491 5488 5484 5480 5476 5473 5468 5464 5460 5456 5452 5448 5443 5438 5434 5431 5425 5417 5409 5402 5394 5385 5377 5369 5360 5351 5343 5333 5324 5318 5312 5307 5305 5303 5300 5299 5295 5293 5299 5300 5293 5290 5291 5290 5286 5283 5283 5286 5288 5289 5292 5296 5302 5310 5320 5332 5347 5364 5382 5401 5417 5430 5443
5534 5532 5530 5528 5526 5524 5522 5520 5518 5516 5514 5513 5510 5508 5506 5504 5502 5500 5496 5492 5488 5485 5481 5477 5474 5471 5466 5462 5459 5454 5450 5445 5441 5437 5432 5427 5421 5417 5412 5404 5395 5387 5380 5372 5365 5357 5348 5338 5329 5319 5311 5307 5302 5297 5296 5294 5291 5290 5286 5283 5287 5289 5285 5283 5283 5280 5276 5274 5274 5276 5279 5280 5283 5286 5292 5299 5308 5320 5334 5349 5365 5383 5402 5418 5431
5525 5523 5521 5519 5517 5515 5513 5511 5509 5507 5505 5503 5501 5498 5496 5494 5492 5489 5486 5482 5478 5475 5472 5468 5464 5461 5457 5453 5449 5445 5439 5435 5430 5426 5421 5415 5409 5403 5397 5389 5380 5370 5362 5356 5351 5343 5335 5326 5317 5308 5302 5299 5294 5289 5288 5286 5282 5280 5278 5276 5277 5277 5275 5275 5277 5273 5268 5266 5266 5266 5269 5271 5273 5277 5282 5289 5298 5309 5321 5333 5347 5365 5386 5404 5419
5518 5516 5514 5511 5509 5507 5505 5502 5500 5498 5496 5494 5491 5488 5486 5484 5482 5480 5476 5472 5469 5465 5462 5459 5455 5451 5447 5443 5439 5434 5429 5424 5420 5415 5410 5405 5398 5391 5385 5377 5366 5355 5344 5336 5331 5327 5319 5312 5304 5298 5293 5292 5288 5282 5279 5278 5274 5271 5271 5269 5268 5269 5267 5266 5269 5267 5262 5259 5258 5258 5260 5263 5265 5268 5273 5281 5290 5299 5308 5320 5334 5352 5372 5389 5405
5510 5508 5506 5504 5501 5499 5496 5494 5491 5488 5486 5484 5481 5478 5476 5474 5472 5470 5467 5463 5460 5456 5452 5449 5445 5441 5437 5433 5429 5424 5418 5413 5408 5404 5401 5396 5389 5381 5374 5365 5356 5346 5334 5323 5314 5308 5303 5297 5292 5289 5286 5284 5281 5277 5272 5270 5267 5265 5264 5263 5262 5261 5260 5259 5261 5261 5257 5253 5251 5252 5255 5258 5259 5261 5266 5273 5280 5288 5298 5310 5325 5341 5358 5375 5391
5502 5500 5498 5496 5494 5491 5488 5485 5481 5478 5476 5474 5472 5468 5466 5464 5462 5460 5458 5454 5450 5446 5442 5439 5435 5431 5427 5423 5419 5414 5408 5403 5398 5393 5389 5385 5379 5372 5364 5356 5347 5339 5329 5317 5304 5293 5287 5282 5279 5279 5278 5275 5274 5271 5266 5262 5260 5259 5257 5256 5255 5253 5254 5254 5254 5255 5252 5247 5246 5247 5249 5253 5254 5256 5261 5268 5273 5280 5290 5303 5316 5330 5346 5364 5380
5495 5493 5491 5488 5485 5482 5479 5475 5471 5468 5466 5464 5461 5459 5456 5454 5452 5450 5447 5444 5440 5436 5433 5429 5425 5421 5417 5413 5409 5405 5399 5393 5387 5382 5378 5373 5367 5361 5355 5347 5339 5331 5323 5313 5299 5285 5275 5270 5268 5270 5269 5266 5266 5264 5259 5254 5253 5252 5250 5249 5248 5247 5247 5247 5248 5249 5248 5243 5241 5242 5244 5250 5251 5251 5255 5263 5267 5274 5284 5296 5309 5323 5338 5355 5372
5487 5485 5482 5479 5476 5473 5469 5466 5462 5459 5457 5454 5451 5449 5447 5444 5442 5440 5437 5434 5431 5427 5424 5420 5416 5411 5407 5403 5399 5395 5390 5384 5377 5371 5366 5361 5355 5349 5344 5337 5329 5320 5313 5304 5292 5279 5269 5261 5260 5261 5260 5257 5256 5255 5252 5247 5244 5243 5242 5241 5241 5240 5239 5240 5242 5243 5243 5240 5237 5237 5240 5248 5249 5246 5250 5258 5262 5270 5281 5293 5307 5320 5333 5348 5364
5478 5475 5472 5469 5466 5464 5461 5458 5455 5450 5448 5445 5442 5440 5438 5435 5432 5430 5427 5424 5421 5418 5415 5411 5406 5402 5397 5393 5389 5385 5380 5374 5367 5360 5354 5347 5341 5336 5331 5326 5319 5309 5300 5290 5280 5271 5262 5255 5253 5253 5251 5248 5246 5243 5242 5237 5234 5233 5231 5231 5234 5232 5230 5233 5236 5236 5237 5237 5234 5232 5236 5244 5245 5243 5248 5255 5258 5266 5280 5293 5306 5318 5330 5344 5358
5469 5466 5464 5460 5457 5455 5453 5450 5447 5442 5439 5437 5434 5431 5428 5426 5423 5421 5418 5415 5413 5410 5406 5402 5398 5393 5388 5383 5379 5375 5370 5364 5357 5350 5342 5335 5329 5323 5317 5314 5309 5300 5290 5279 5269 5261 5253 5247 5245 5243 5240 5239 5235 5232 5229 5225 5222 5219 5217 5220 5226 5223 5221 5226 5229 5229 5230 5231 5231 5229 5230 5237 5241 5240 5246 5253 5256 5263 5276 5289 5302 5315 5327 5340 5352
5462 5459 5456 5453 5450 5447 5445 5442 5438 5434 5431 5428 5425 5422 5419 5417 5415 5412 5410 5407 5404 5401 5398 5394 5389 5385 5379 5374 5368 5364 5359 5354 5347 5340 5333 5324 5318 5311 5304 5301 5298 5291 5281 5270 5261 5254 5247 5241 5237 5234 5230 5227 5223 5220 5217 5213 5210 5206 5203 5208 5214 5212 5213 5219 5220 5221 5223 5225 5227 5225 5224 5231 5237 5237 5242 5249 5253 5261 5272 5283 5295 5308 5321 5334 5346
5453 5450 5447 5444 5442 5439 5436 5433 5430 5426 5423 5420 5417 5414 5410 5408 5406 5404 5400 5398 5395 5392 5389 5385 5381 5376 5371 5365 5359 5353 5348 5343 5336 5330 5324 5315 5307 5300 5292 5287 5284 5279 5270 5260 5251 5245 5241 5236 5231 5227 5223 5219 5214 5210 5207 5203 5200 5196 5193 5196 5200 5201 5205 5210 5211 5212 5217 5221 5223 5220 5218 5225 5231 5232 5236 5243 5248 5256 5267 5277 5289 5301 5314 5327 5339